QPF
0.01 0.00 0.02 0.02 0.01 0.00 0.00 0.00 0.00 0.00 0.00 0.00 0.00 0.00 0.00 0.00 0.00 0.00 0.00 0.00 0.00 0.00
0.00 0.00 0.01 0.03 0.01 0.00 0.00 0.00 0.00 0.00 0.00 0.00 0.00 0.00 0.00 0.00 0.00 0.00 0.00 0.00 0.00 0.00
0.01 0.01 0.01 0.06 0.02 0.00 0.00 0.00 0.00 0.00 0.00 0.00 0.00 0.00 0.00 0.00 0.00 0.00 0.00 0.00 0.00 0.00
0.03 0.03 0.02 0.04 0.04 0.03 0.01 0.00 0.00 0.00 0.00 0.00 0.00 0.00 0.00 0.00 0.00 0.00 0.00 0.00 0.00 0.00
0.03 0.03 0.02 0.01 0.04 0.05 0.03 0.02 0.02 0.01 0.01 0.00 0.00 0.00 0.00 0.00 0.00 0.00 0.00 0.00 0.00 0.00
0.04 0.04 0.05 0.06 0.07 0.05 0.04 0.03 0.03 0.02 0.02 0.00 0.00 0.00 0.00 0.00 0.00 0.00 0.00 0.00 0.00 0.00
0.01 0.08 0.07 0.08 0.06 0.04 0.03 0.04 0.03 0.03 0.02 0.01 0.00 0.00 0.00 0.00 0.00 0.00 0.00 0.00 0.00 0.00
0.01 0.02 0.04 0.05 0.04 0.04 0.03 0.03 0.04 0.02 0.01 0.00 0.00 0.00 0.00 0.00 0.00 0.00 0.00 0.00 0.00 0.00
0.01 0.03 0.02 0.02 0.01 0.01 0.00 0.01 0.01 0.01 0.01 0.00 0.00 0.01 0.00 0.01 0.00 0.00 0.00 0.00 0.00 0.00
0.02 0.09 0.06 0.03 0.03 0.00 0.00 0.00 0.00 0.00 0.00 0.01 0.01 0.02 0.02 0.01 0.01 0.00 0.00 0.00 0.00 0.00
0.00 0.01 0.05 0.03 0.04 0.01 0.00 0.00 0.00 0.01 0.01 0.01 0.02 0.02 0.02 0.02 0.01 0.01 0.00 0.00 0.00 0.00
0.00 0.00 0.00 0.01 0.04 0.06 0.03 0.01 0.02 0.06 0.06 0.05 0.03 0.01 0.00 0.00 0.01 0.01 0.01 0.01 0.01 0.01
0.00 0.00 0.01 0.01 0.00 0.02 0.04 0.05 0.03 0.04 0.04 0.03 0.02 0.01 0.00 0.03 0.05 0.04 0.01 0.00 0.00 0.00
0.00 0.00 0.00 0.01 0.01 0.02 0.02 0.02 0.02 0.03 0.05 0.05 0.04 0.02 0.03 0.03 0.04 0.03 0.02 0.01 0.00 0.00
MSLP
1009.28 1009.96 1010.69 1011.62 1012.50 1013.14 1013.86 1014.41 1015.22 1015.69 1016.20 1016.74 1017.16 1017.74 1018.23 1018.90 1019.38 1019.66 1020.06 1020.36 1020.76 1021.02
1008.60 1009.36 1010.08 1010.92 1011.77 1012.64 1013.26 1013.86 1014.57 1015.24 1015.81 1016.28 1016.65 1017.12 1017.84 1018.40 1018.97 1019.25 1019.57 1019.91 1020.20 1020.58
1007.85 1008.80 1009.51 1010.55 1011.37 1011.96 1012.68 1013.27 1013.87 1014.58 1015.25 1016.03 1016.41 1016.89 1017.47 1018.00 1018.40 1018.78 1019.05 1019.22 1019.60 1020.05
1007.54 1008.30 1009.20 1010.06 1010.84 1011.49 1012.06 1012.52 1013.13 1013.91 1014.69 1015.34 1015.99 1016.42 1017.00 1017.52 1017.84 1018.13 1018.46 1018.88 1019.26 1019.46
1007.19 1007.83 1008.66 1009.39 1010.12 1010.83 1011.51 1012.07 1012.68 1013.37 1013.88 1014.36 1014.85 1015.49 1016.09 1016.81 1017.04 1017.43 1017.86 1018.19 1018.54 1018.83
1006.75 1007.25 1007.93 1008.66 1009.44 1010.42 1011.23 1011.90 1012.46 1013.04 1013.52 1014.04 1014.48 1015.01 1015.23 1015.88 1016.40 1016.78 1016.84 1017.28 1017.78 1017.86
1006.13 1006.72 1007.30 1008.29 1009.05 1009.91 1010.76 1011.43 1012.05 1012.44 1012.92 1013.44 1013.96 1014.27 1014.71 1014.97 1015.36 1015.78 1016.19 1016.33 1016.75 1016.96
1005.28 1005.94 1006.85 1007.64 1008.41 1009.34 1009.99 1010.54 1011.05 1011.68 1012.23 1012.82 1013.15 1013.34 1013.78 1014.21 1014.61 1015.16 1015.53 1015.83 1016.16 1016.33
1004.94 1005.71 1006.27 1006.97 1007.68 1008.42 1009.21 1009.78 1010.29 1010.78 1011.24 1011.84 1012.24 1012.44 1012.84 1013.28 1013.98 1014.47 1014.89 1015.54 1016.07 1016.49
1004.57 1005.30 1005.83 1006.39 1006.94 1007.74 1008.35 1009.06 1009.49 1009.88 1010.30 1010.91 1011.34 1011.63 1011.99 1012.69 1013.46 1013.93 1014.29 1014.92 1015.88 1016.77
1004.27 1004.96 1005.61 1006.29 1006.57 1007.16 1007.86 1008.38 1008.83 1009.38 1009.76 1010.45 1010.95 1011.49 1012.00 1012.74 1013.46 1014.00 1014.46 1014.93 1015.57 1016.33
1004.10 1004.65 1005.19 1005.91 1006.42 1006.87 1007.59 1008.19 1008.69 1009.07 1009.68 1010.42 1011.27 1011.62 1012.16 1012.74 1013.69 1014.58 1015.36 1015.73 1016.23 1017.06
1004.29 1004.62 1005.08 1005.58 1006.31 1006.89 1007.49 1008.14 1009.15 1009.73 1009.98 1010.49 1011.35 1012.08 1012.48 1012.85 1013.89 1014.98 1015.96 1016.69 1017.34 1017.41
1005.10 1005.29 1005.65 1005.94 1006.50 1007.25 1008.13 1008.98 1009.68 1010.48 1011.04 1011.44 1011.90 1012.71 1013.38 1013.75 1014.12 1014.75 1015.77 1016.67 1017.25 1018.26
Thickness
5639 5639 5639 5637 5635 5635 5632 5631 5626 5626 5623 5621 5620 5618 5617 5614 5612 5612 5610 5609 5607 5605
5638 5637 5638 5636 5635 5630 5630 5629 5625 5622 5621 5618 5617 5616 5613 5611 5608 5607 5606 5604 5603 5601
5637 5635 5635 5630 5629 5628 5626 5625 5624 5621 5618 5613 5613 5611 5608 5606 5604 5602 5602 5602 5600 5597
5631 5630 5628 5626 5625 5624 5624 5624 5622 5619 5615 5612 5609 5607 5603 5600 5597 5598 5598 5596 5594 5593
5625 5625 5624 5624 5623 5621 5619 5620 5617 5615 5614 5613 5611 5606 5601 5596 5595 5595 5593 5591 5589 5588
5619 5622 5624 5622 5620 5617 5614 5612 5611 5609 5608 5605 5605 5601 5599 5597 5594 5592 5594 5590 5586 5587
5618 5620 5620 5617 5615 5612 5609 5607 5605 5606 5605 5602 5600 5599 5597 5596 5594 5592 5590 5590 5588 5587
5619 5618 5614 5613 5612 5607 5606 5606 5606 5604 5602 5599 5599 5599 5597 5595 5592 5588 5587 5587 5584 5585
5612 5611 5612 5610 5608 5607 5604 5603 5603 5603 5602 5599 5597 5598 5596 5594 5589 5586 5584 5581 5576 5573
5606 5607 5607 5607 5606 5604 5603 5600 5601 5601 5601 5598 5597 5594 5593 5590 5586 5583 5581 5576 5570 5563
5598 5599 5599 5597 5599 5600 5598 5597 5596 5595 5595 5592 5589 5586 5585 5579 5576 5572 5569 5566 5562 5555
5587 5591 5593 5591 5592 5593 5590 5587 5589 5588 5585 5582 5577 5576 5574 5570 5563 5556 5550 5548 5544 5538
5577 5582 5583 5584 5581 5580 5581 5577 5571 5570 5572 5570 5565 5561 5559 5557 5548 5539 5533 5528 5523 5523
5560 5563 5565 5567 5567 5565 5561 5558 5556 5553 5552 5551 5549 5543 5539 5536 5534 5529 5521 5514 5510 5502